START_TIME,STEP,MOV.,M6,t_acc.,M7,t_acc.,M19,t_acc.,H36,t_acc.
1979-07-21 12:00:26.800 ,0,0,1.,12.0,0.,12.0,0.,12.0,0.,12.0
1979-07-21 12:00:38.800 ,0,0,0.,12.0,0.,12.0,0.,12.0,0.,12.0
1979-07-21 12:00:50.800 ,1,1,0.,12.0,0.,12.0,0.,12.0,0.,12.0
1979-07-21 12:01:02.800 ,1,1,0.,12.0,0.,12.0,0.,12.0,0.,12.0
1979-07-21 12:01:14.800 ,1,0,0.,12.0,0.,12.0,0.,12.0,0.,12.0
1979-07-21 12:01:26.800 ,1,0,0.,12.0,0.,12.0,0.,12.0,0.,12.0
1979-07-21 12:01:38.800 ,2,1,0.,12.0,0.,12.0,0.,12.0,0.,12.0
1979-07-21 12:01:50.800 ,2,1,0.,12.0,0.,12.0,0.,12.0,0.,12.0
1979-07-21 12:02:02.800 ,2,0,0.,12.0,0.,12.0,0.,12.0,0.,12.0
1979-07-21 12:02:14.800 ,2,0,0.,12.0,0.,12.0,0.,12.0,0.,12.0
1979-07-21 12:02:26.800 ,3,1,0.,12.0,0.,12.0,0.,12.0,0.,12.0
1979-07-21 12:02:38.800 ,3,1,0.,12.0,0.,12.0,0.,12.0,0.,12.0
1979-07-21 12:02:50.800 ,3,0,0.,12.0,0.,12.0,0.,12.0,0.,12.0
1979-07-21 12:03:02.800 ,3,0,0.,12.0,0.,12.0,0.,12.0,0.,12.0
1979-07-21 12:03:14.800 ,4,1,0.,12.0,0.,12.0,0.,12.0,0.,12.0
1979-07-21 12:03:26.800 ,4,1,0.,12.0,0.,12.0,0.,12.0,0.,12.0
1979-07-21 12:03:38.800 ,4,0,0.,12.0,0.,12.0,0.,12.0,0.,12.0
1979-07-21 12:03:50.800 ,4,0,0.,12.0,0.,12.0,0.,12.0,0.,12.0
1979-07-21 12:04:02.800 ,5,1,0.,12.0,0.,12.0,0.,12.0,0.,12.0
1979-07-21 12:04:14.800 ,5,1,0.,12.0,0.,12.0,0.,12.0,0.,12.0
1979-07-21 12:04:26.800 ,5,0,0.,12.0,0.,12.0,0.,12.0,0.,12.0
1979-07-21 12:04:38.800 ,5,0,0.,12.0,0.,12.0,0.,12.0,0.,12.0
1979-07-21 12:04:50.800 ,6,1,0.,12.0,0.,12.0,0.,12.0,0.,12.0
1979-07-21 12:05:02.800 ,6,1,0.,12.0,0.,12.0,0.,12.0,0.,12.0
1979-07-21 12:05:14.800 ,6,0,0.,12.0,0.,12.0,0.,12.0,0.,12.0
1979-07-21 12:05:26.800 ,6,0,0.,12.0,0.,12.0,0.,12.0,0.,12.0
1979-07-21 12:05:38.800 ,7,1,0.,12.0,0.,12.0,0.,12.0,0.,12.0
1979-07-21 12:05:50.800 ,7,1,0.,12.0,0.,12.0,0.,12.0,0.,12.0
1979-07-21 12:06:02.800 ,7,0,0.,12.0,0.,12.0,0.,12.0,0.,12.0
1979-07-21 12:06:14.800 ,7,0,0.,12.0,0.,12.0,0.,12.0,0.,12.0
1979-07-21 12:06:26.800 ,7,1,0.,12.0,0.,12.0,0.,12.0,0.,12.0
1979-07-21 12:06:38.800 ,7,1,0.,12.0,0.,12.0,0.,12.0,0.,12.0
1979-07-21 12:06:50.800 ,7,0,0.,12.0,0.,12.0,0.,12.0,0.,12.0
1979-07-21 12:07:02.800 ,7,0,0.,12.0,0.,12.0,0.,12.0,0.,12.0
1979-07-21 12:07:14.800 ,6,1,0.,12.0,0.,12.0,0.,12.0,0.,12.0
1979-07-21 12:07:26.800 ,6,1,0.,12.0,0.,12.0,0.,12.0,0.,12.0
1979-07-21 12:07:38.800 ,6,0,0.,12.0,0.,12.0,0.,12.0,0.,12.0
1979-07-21 12:07:50.800 ,6,0,0.,12.0,0.,12.0,0.,12.0,0.,12.0
1979-07-21 12:08:02.800 ,5,1,0.,12.0,0.,12.0,0.,12.0,0.,12.0
1979-07-21 12:08:14.800 ,5,1,0.,12.0,0.,12.0,0.,12.0,0.,12.0
1979-07-21 12:08:26.800 ,5,0,0.,12.0,0.,12.0,0.,12.0,0.,12.0
1979-07-21 12:08:38.800 ,5,0,1.,12.0,0.,12.0,0.,12.0,0.,12.0
1979-07-21 12:08:50.800 ,4,1,0.,12.0,0.,12.0,0.,12.0,0.,12.0
1979-07-21 12:09:02.800 ,4,1,0.,12.0,0.,12.0,0.,12.0,0.,12.0
1979-07-21 12:09:14.800 ,4,0,0.,12.0,0.,12.0,0.,12.0,0.,12.0
1979-07-21 12:09:26.800 ,4,0,0.,12.0,0.,12.0,0.,12.0,0.,12.0
1979-07-21 12:09:38.800 ,3,1,0.,12.0,0.,12.0,0.,12.0,0.,12.0
1979-07-21 12:09:50.800 ,3,1,0.,12.0,0.,12.0,0.,12.0,0.,12.0
1979-07-21 12:10:02.800 ,3,0,0.,12.0,0.,12.0,0.,12.0,0.,12.0
1979-07-21 12:10:14.800 ,3,0,0.,12.0,0.,12.0,0.,12.0,0.,12.0
1979-07-21 12:10:26.800 ,2,1,0.,12.0,0.,12.0,0.,12.0,0.,12.0
1979-07-21 12:10:38.800 ,2,1,0.,12.0,0.,12.0,0.,12.0,0.,12.0
1979-07-21 12:10:50.800 ,2,0,0.,12.0,0.,12.0,0.,12.0,0.,12.0
1979-07-21 12:11:02.800 ,2,0,0.,12.0,0.,12.0,0.,12.0,0.,12.0
1979-07-21 12:11:14.800 ,1,1,0.,12.0,0.,12.0,0.,12.0,0.,12.0
1979-07-21 12:11:26.800 ,1,1,0.,12.0,0.,12.0,0.,12.0,0.,12.0
1979-07-21 12:11:38.800 ,1,0,0.,12.0,0.,12.0,0.,12.0,0.,12.0
1979-07-21 12:11:50.800 ,1,0,0.,12.0,0.,12.0,0.,12.0,0.,12.0
1979-07-21 12:12:02.800 ,0,1,0.,12.0,0.,12.0,0.,12.0,0.,12.0
1979-07-21 12:12:14.800 ,0,1,0.,12.0,0.,12.0,0.,12.0,0.,12.0
1979-07-21 12:12:26.800 ,0,0,0.,12.0,0.,12.0,0.,12.0,0.,12.0
1979-07-21 12:12:38.800 ,0,0,0.,12.0,0.,12.0,0.,12.0,0.,12.0
1979-07-21 12:12:50.800 ,0,1,0.,12.0,0.,12.0,0.,12.0,0.,12.0
1979-07-21 12:13:02.800 ,0,1,0.,12.0,0.,12.0,0.,12.0,0.,12.0
1979-07-21 12:13:14.800 ,0,0,0.,12.0,0.,12.0,0.,12.0,0.,12.0
1979-07-21 12:13:26.800 ,0,0,0.,12.0,0.,12.0,0.,12.0,0.,12.0
1979-07-21 12:13:38.800 ,1,1,1.,12.0,0.,12.0,0.,12.0,0.,12.0
1979-07-21 12:13:50.800 ,1,1,0.,12.0,0.,12.0,0.,12.0,0.,12.0
1979-07-21 12:14:02.800 ,1,0,0.,12.0,0.,12.0,0.,12.0,0.,12.0
1979-07-21 12:14:14.800 ,1,0,0.,12.0,0.,12.0,0.,12.0,0.,12.0
1979-07-21 12:14:26.800 ,2,1,0.,12.0,0.,12.0,0.,12.0,0.,12.0
1979-07-21 12:14:38.800 ,2,1,0.,12.0,0.,12.0,0.,12.0,0.,12.0
1979-07-21 12:14:50.800 ,2,0,0.,12.0,0.,12.0,0.,12.0,0.,12.0
1979-07-21 12:15:02.800 ,2,0,0.,12.0,0.,12.0,0.,12.0,0.,12.0
1979-07-21 12:15:14.800 ,3,1,0.,12.0,0.,12.0,0.,12.0,0.,12.0
1979-07-21 12:15:26.800 ,3,1,0.,12.0,0.,12.0,0.,12.0,0.,12.0
1979-07-21 12:15:38.800 ,3,0,0.,12.0,0.,12.0,0.,12.0,0.,12.0
1979-07-21 12:15:50.800 ,3,0,0.,12.0,0.,12.0,0.,12.0,0.,12.0
1979-07-21 12:16:02.800 ,4,1,0.,12.0,0.,12.0,0.,12.0,0.,12.0
1979-07-21 12:16:14.800 ,4,1,0.,12.0,0.,12.0,0.,12.0,0.,12.0
1979-07-21 12:16:26.800 ,4,0,0.,12.0,0.,12.0,0.,12.0,0.,12.0
1979-07-21 12:16:38.800 ,4,0,0.,12.0,0.,12.0,0.,12.0,0.,12.0
1979-07-21 12:16:50.800 ,5,1,0.,12.0,0.,12.0,0.,12.0,0.,12.0
1979-07-21 12:17:02.800 ,5,1,0.,12.0,0.,12.0,0.,12.0,0.,12.0
1979-07-21 12:17:14.800 ,5,0,0.,12.0,0.,12.0,0.,12.0,0.,12.0
1979-07-21 12:17:26.800 ,5,0,0.,12.0,0.,12.0,0.,12.0,0.,12.0
1979-07-21 12:17:38.800 ,6,1,0.,12.0,0.,12.0,0.,12.0,0.,12.0
1979-07-21 12:17:50.800 ,6,1,0.,12.0,0.,12.0,0.,12.0,0.,12.0
1979-07-21 12:18:02.800 ,6,0,0.,12.0,0.,12.0,0.,12.0,0.,12.0
1979-07-21 12:18:14.800 ,6,0,0.,12.0,0.,12.0,0.,12.0,0.,12.0
1979-07-21 12:18:26.800 ,7,0,0.,12.0,0.,12.0,0.,12.0,0.,12.0
1979-07-21 12:18:38.800 ,7,0,0.,12.0,0.,12.0,0.,12.0,0.,12.0
1979-07-21 12:18:50.800 ,7,0,0.,12.0,0.,12.0,0.,12.0,0.,12.0
1979-07-21 12:19:02.800 ,7,0,0.,12.0,0.,12.0,0.,12.0,0.,12.0
1979-07-21 12:19:14.800 ,4,1,0.,12.0,0.,12.0,0.,12.0,0.,12.0
1979-07-21 12:19:26.800 ,4,1,0.,12.0,0.,12.0,0.,12.0,0.,12.0
1979-07-21 12:19:38.800 ,0,1,0.,12.0,0.,12.0,0.,12.0,0.,12.0
1979-07-21 12:19:50.800 ,0,1,0.,12.0,0.,12.0,0.,12.0,0.,12.0
1979-07-21 12:20:02.800 ,3,1,0.,12.0,0.,12.0,0.,12.0,0.,12.0
1979-07-21 12:20:14.800 ,3,1,0.,12.0,0.,12.0,0.,12.0,0.,12.0
1979-07-21 12:20:26.800 ,7,1,0.,12.0,0.,12.0,0.,12.0,0.,12.0
1979-07-21 12:20:38.800 ,7,1,0.,12.0,0.,12.0,0.,12.0,0.,12.0
1979-07-21 12:20:50.800 ,4,1,0.,12.0,0.,12.0,0.,12.0,0.,12.0
1979-07-21 12:21:02.800 ,4,1,0.,12.0,0.,12.0,0.,12.0,0.,12.0
1979-07-21 12:21:14.800 ,0,1,0.,12.0,0.,12.0,0.,12.0,0.,12.0
1979-07-21 12:21:26.800 ,0,1,0.,12.0,0.,12.0,0.,12.0,0.,12.0
1979-07-21 12:21:38.800 ,3,1,0.,12.0,0.,12.0,0.,12.0,0.,12.0
1979-07-21 12:21:50.800 ,3,1,0.,12.0,0.,12.0,0.,12.0,0.,12.0
1979-07-21 12:22:02.800 ,7,1,1.,12.0,0.,12.0,0.,12.0,0.,12.0
1979-07-21 12:22:14.800 ,7,1,0.,12.0,0.,12.0,0.,12.0,0.,12.0
1979-07-21 12:22:26.800 ,4,1,0.,12.0,0.,12.0,0.,12.0,0.,12.0
1979-07-21 12:22:38.800 ,4,1,0.,12.0,0.,12.0,0.,12.0,0.,12.0
1979-07-21 12:22:50.800 ,0,1,0.,12.0,0.,12.0,0.,12.0,0.,12.0
1979-07-21 12:23:02.800 ,0,1,0.,12.0,0.,12.0,0.,12.0,0.,12.0
1979-07-21 12:23:14.800 ,3,1,0.,12.0,0.,12.0,0.,12.0,0.,12.0
1979-07-21 12:23:26.800 ,3,1,0.,12.0,0.,12.0,0.,12.0,0.,12.0
1979-07-21 12:23:38.800 ,7,1,0.,12.0,0.,12.0,0.,12.0,0.,12.0
1979-07-21 12:23:50.800 ,7,1,0.,12.0,0.,12.0,0.,12.0,0.,12.0
1979-07-21 12:24:02.800 ,4,1,0.,12.0,0.,12.0,0.,12.0,0.,12.0
1979-07-21 12:24:14.800 ,4,1,0.,12.0,0.,12.0,0.,12.0,0.,12.0
1979-07-21 12:24:26.800 ,0,1,0.,12.0,0.,12.0,0.,12.0,0.,12.0
1979-07-21 12:24:38.800 ,0,1,0.,12.0,0.,12.0,0.,12.0,0.,12.0
1979-07-21 12:24:50.800 ,3,1,0.,12.0,0.,12.0,0.,12.0,0.,12.0
1979-07-21 12:25:02.800 ,3,1,0.,12.0,0.,12.0,0.,12.0,0.,12.0
1979-07-21 12:25:14.800 ,7,1,0.,12.0,0.,12.0,0.,12.0,0.,12.0
1979-07-21 12:25:26.800 ,7,1,0.,12.0,0.,12.0,0.,12.0,0.,12.0
1979-07-21 12:25:38.800 ,4,1,0.,12.0,0.,12.0,0.,12.0,0.,12.0
1979-07-21 12:25:50.800 ,4,1,0.,12.0,0.,12.0,0.,12.0,0.,12.0
1979-07-21 12:26:02.800 ,0,1,0.,12.0,0.,12.0,0.,12.0,0.,12.0
1979-07-21 12:26:14.800 ,0,1,0.,12.0,0.,12.0,0.,12.0,0.,12.0
1979-07-21 12:26:26.800 ,3,1,0.,12.0,0.,12.0,0.,12.0,0.,12.0
1979-07-21 12:26:38.800 ,3,1,0.,12.0,0.,12.0,0.,12.0,0.,12.0
1979-07-21 12:26:50.800 ,7,1,0.,12.0,0.,12.0,0.,12.0,0.,12.0
1979-07-21 12:27:02.800 ,7,1,0.,12.0,0.,12.0,0.,12.0,0.,12.0
1979-07-21 12:27:14.800 ,4,1,0.,12.0,0.,12.0,0.,12.0,0.,12.0
1979-07-21 12:27:26.800 ,4,1,0.,12.0,0.,12.0,0.,12.0,0.,12.0
1979-07-21 12:27:38.800 ,0,1,0.,12.0,0.,12.0,0.,12.0,0.,12.0
1979-07-21 12:27:50.800 ,0,1,0.,12.0,0.,12.0,0.,12.0,0.,12.0
1979-07-21 12:28:02.800 ,3,1,0.,12.0,0.,12.0,0.,12.0,0.,12.0
1979-07-21 12:28:14.800 ,3,1,1.,12.0,0.,12.0,0.,12.0,0.,12.0
1979-07-21 12:28:26.800 ,7,1,0.,12.0,0.,12.0,0.,12.0,0.,12.0
1979-07-21 12:28:38.800 ,7,1,0.,12.0,0.,12.0,0.,12.0,0.,12.0
1979-07-21 12:28:50.800 ,4,1,0.,12.0,0.,12.0,0.,12.0,0.,12.0
1979-07-21 12:29:02.800 ,4,1,0.,12.0,0.,12.0,0.,12.0,0.,12.0
1979-07-21 12:29:14.800 ,0,1,0.,12.0,0.,12.0,0.,12.0,0.,12.0
1979-07-21 12:29:26.800 ,0,1,0.,12.0,0.,12.0,0.,12.0,0.,12.0
1979-07-21 12:29:38.800 ,0,0,0.,12.0,0.,12.0,0.,12.0,0.,12.0
1979-07-21 12:29:50.800 ,0,0,0.,12.0,0.,12.0,0.,12.0,0.,12.0
1979-07-21 12:30:02.800 ,0,0,0.,12.0,0.,12.0,0.,12.0,0.,12.0
1979-07-21 12:30:14.800 ,0,0,0.,12.0,0.,12.0,0.,12.0,0.,12.0
1979-07-21 12:30:26.800 ,5,1,0.,12.0,0.,12.0,0.,12.0,0.,12.0
1979-07-21 12:30:38.800 ,5,1,0.,12.0,0.,12.0,0.,12.0,0.,12.0
1979-07-21 12:30:50.800 ,5,0,0.,12.0,0.,12.0,0.,12.0,0.,12.0
1979-07-21 12:31:02.800 ,5,0,0.,12.0,0.,12.0,0.,12.0,0.,12.0
1979-07-21 12:31:14.800 ,4,1,1.,12.0,0.,12.0,0.,12.0,0.,12.0
1979-07-21 12:31:26.800 ,4,1,0.,12.0,0.,12.0,0.,12.0,0.,12.0
1979-07-21 12:31:38.800 ,4,0,1.,12.0,0.,12.0,0.,12.0,0.,12.0
1979-07-21 12:31:50.800 ,4,0,0.,12.0,0.,12.0,0.,12.0,0.,12.0
1979-07-21 12:32:02.800 ,3,1,0.,12.0,0.,12.0,0.,12.0,0.,12.0
1979-07-21 12:32:14.800 ,3,1,0.,12.0,0.,12.0,0.,12.0,0.,12.0
1979-07-21 12:32:26.800 ,3,0,0.,12.0,0.,12.0,0.,12.0,0.,12.0
1979-07-21 12:32:38.800 ,3,0,0.,12.0,0.,12.0,0.,12.0,0.,12.0
1979-07-21 12:32:50.800 ,2,1,0.,12.0,0.,12.0,0.,12.0,0.,12.0
1979-07-21 12:33:02.800 ,2,1,0.,12.0,0.,12.0,0.,12.0,0.,12.0
1979-07-21 12:33:14.800 ,2,0,0.,12.0,0.,12.0,0.,12.0,0.,12.0
1979-07-21 12:33:26.800 ,2,0,0.,12.0,0.,12.0,0.,12.0,0.,12.0
1979-07-21 12:33:38.800 ,1,1,0.,12.0,0.,12.0,0.,12.0,0.,12.0
1979-07-21 12:33:50.800 ,1,1,0.,12.0,0.,12.0,0.,12.0,0.,12.0
1979-07-21 12:34:02.800 ,1,0,0.,12.0,0.,12.0,0.,12.0,0.,12.0
1979-07-21 12:34:14.800 ,1,0,0.,12.0,0.,12.0,0.,12.0,0.,12.0
1979-07-21 12:34:26.800 ,0,1,0.,12.0,0.,12.0,0.,12.0,0.,12.0
1979-07-21 12:34:38.800 ,0,1,0.,12.0,0.,12.0,0.,12.0,0.,12.0
1979-07-21 12:34:50.800 ,0,0,0.,12.0,0.,12.0,0.,12.0,0.,12.0
1979-07-21 12:35:02.800 ,0,0,0.,12.0,0.,12.0,0.,12.0,0.,12.0
1979-07-21 12:35:14.800 ,0,1,0.,12.0,0.,12.0,0.,12.0,0.,12.0
1979-07-21 12:35:26.800 ,0,1,0.,12.0,0.,12.0,0.,12.0,0.,12.0
1979-07-21 12:35:38.800 ,0,0,0.,12.0,0.,12.0,0.,12.0,0.,12.0
1979-07-21 12:35:50.800 ,0,0,0.,12.0,0.,12.0,0.,12.0,0.,12.0
1979-07-21 12:36:02.800 ,1,1,0.,12.0,0.,12.0,0.,12.0,0.,12.0
1979-07-21 12:36:14.800 ,1,1,0.,12.0,0.,12.0,0.,12.0,0.,12.0
1979-07-21 12:36:26.800 ,1,0,0.,12.0,0.,12.0,0.,12.0,0.,12.0
1979-07-21 12:36:38.800 ,1,0,0.,12.0,0.,12.0,0.,12.0,0.,12.0
1979-07-21 12:36:50.800 ,2,1,0.,12.0,0.,12.0,0.,12.0,0.,12.0
1979-07-21 12:37:02.800 ,2,1,0.,12.0,0.,12.0,0.,12.0,0.,12.0
1979-07-21 12:37:14.800 ,2,0,0.,12.0,0.,12.0,0.,12.0,0.,12.0
1979-07-21 12:37:26.800 ,2,0,0.,12.0,0.,12.0,0.,12.0,0.,12.0
1979-07-21 12:37:38.800 ,3,1,0.,12.0,0.,12.0,0.,12.0,0.,12.0
1979-07-21 12:37:50.800 ,3,1,0.,12.0,0.,12.0,0.,12.0,0.,12.0
1979-07-21 12:38:02.800 ,3,0,0.,12.0,0.,12.0,0.,12.0,0.,12.0
1979-07-21 12:38:14.800 ,3,0,0.,12.0,0.,12.0,0.,12.0,0.,12.0
1979-07-21 12:38:26.800 ,4,1,0.,12.0,0.,12.0,0.,12.0,0.,12.0
1979-07-21 12:38:38.800 ,4,1,0.,12.0,0.,12.0,0.,12.0,0.,12.0
1979-07-21 12:38:50.800 ,4,0,0.,12.0,0.,12.0,0.,12.0,0.,12.0
1979-07-21 12:39:02.800 ,4,0,0.,12.0,0.,12.0,0.,12.0,0.,12.0
1979-07-21 12:39:14.800 ,5,1,0.,12.0,0.,12.0,0.,12.0,0.,12.0
1979-07-21 12:39:26.800 ,5,1,0.,12.0,0.,12.0,0.,12.0,0.,12.0
1979-07-21 12:39:38.800 ,5,0,0.,12.0,0.,12.0,0.,12.0,0.,12.0
1979-07-21 12:39:50.800 ,5,0,0.,12.0,0.,12.0,0.,12.0,0.,12.0
1979-07-21 12:40:02.800 ,6,1,0.,12.0,0.,12.0,0.,12.0,0.,12.0
1979-07-21 12:40:14.800 ,6,1,0.,12.0,0.,12.0,0.,12.0,0.,12.0
1979-07-21 12:40:26.800 ,6,0,0.,12.0,0.,12.0,0.,12.0,0.,12.0
1979-07-21 12:40:38.800 ,6,0,0.,12.0,0.,12.0,0.,12.0,0.,12.0
1979-07-21 12:40:50.800 ,7,1,0.,12.0,0.,12.0,0.,12.0,0.,12.0
1979-07-21 12:41:02.800 ,7,1,0.,12.0,0.,12.0,0.,12.0,0.,12.0
1979-07-21 12:41:14.800 ,7,0,0.,12.0,0.,12.0,0.,12.0,0.,12.0
1979-07-21 12:41:26.800 ,7,0,0.,12.0,0.,12.0,0.,12.0,0.,12.0
1979-07-21 12:41:38.800 ,7,1,0.,12.0,0.,12.0,0.,12.0,0.,12.0
1979-07-21 12:41:50.800 ,7,1,0.,12.0,0.,12.0,0.,12.0,0.,12.0
1979-07-21 12:42:02.800 ,7,0,0.,12.0,0.,12.0,0.,12.0,0.,12.0
1979-07-21 12:42:14.800 ,7,0,0.,12.0,0.,12.0,0.,12.0,0.,12.0
1979-07-21 12:42:26.800 ,6,1,0.,12.0,0.,12.0,0.,12.0,0.,12.0
1979-07-21 12:42:38.800 ,6,1,0.,12.0,0.,12.0,0.,12.0,0.,12.0
1979-07-21 12:42:50.800 ,6,0,0.,12.0,0.,12.0,0.,12.0,0.,12.0
1979-07-21 12:43:02.800 ,6,0,0.,12.0,0.,12.0,0.,12.0,0.,12.0
1979-07-21 12:43:14.800 ,5,1,0.,12.0,0.,12.0,0.,12.0,0.,12.0
1979-07-21 12:43:26.800 ,5,1,0.,12.0,0.,12.0,0.,12.0,0.,12.0
1979-07-21 12:43:38.800 ,5,0,0.,12.0,0.,12.0,0.,12.0,0.,12.0
1979-07-21 12:43:50.800 ,5,0,0.,12.0,0.,12.0,0.,12.0,0.,12.0
1979-07-21 12:44:02.800 ,5,0,0.,12.0,0.,12.0,0.,12.0,0.,12.0
1979-07-21 12:44:14.800 ,5,0,,0,,0,,0,,0
1979-07-21 12:44:26.800 ,4,0,0.,12.0,0.,12.0,0.,12.0,0.,12.0
1979-07-21 12:44:38.800 ,4,0,0.,12.0,0.,12.0,0.,12.0,0.,12.0
1979-07-21 12:44:50.800 ,3,1,0.,12.0,0.,12.0,0.,12.0,0.,12.0
1979-07-21 12:45:02.800 ,3,1,0.,12.0,0.,12.0,0.,12.0,0.,12.0
1979-07-21 12:45:14.800 ,3,0,0.,12.0,0.,12.0,0.,12.0,0.,12.0
1979-07-21 12:45:26.800 ,3,0,0.,12.0,0.,12.0,0.,12.0,0.,12.0
1979-07-21 12:45:38.800 ,2,1,0.,12.0,0.,12.0,0.,12.0,0.,12.0
1979-07-21 12:45:50.800 ,2,1,0.,12.0,0.,12.0,0.,12.0,0.,12.0
1979-07-21 12:46:02.800 ,2,0,0.,12.0,0.,12.0,0.,12.0,0.,12.0
1979-07-21 12:46:14.800 ,2,0,0.,12.0,0.,12.0,0.,12.0,0.,12.0
1979-07-21 12:46:26.800 ,1,1,0.,12.0,0.,12.0,0.,12.0,0.,12.0
1979-07-21 12:46:38.800 ,1,1,0.,12.0,0.,12.0,0.,12.0,0.,12.0
1979-07-21 12:46:50.800 ,1,0,0.,12.0,0.,12.0,0.,12.0,0.,12.0
1979-07-21 12:47:02.800 ,1,0,0.,12.0,0.,12.0,0.,12.0,0.,12.0
1979-07-21 12:47:14.800 ,0,1,0.,12.0,0.,12.0,0.,12.0,0.,12.0
1979-07-21 12:47:26.800 ,0,1,0.,12.0,0.,12.0,0.,12.0,0.,12.0
1979-07-21 12:47:38.800 ,0,0,0.,12.0,0.,12.0,0.,12.0,0.,12.0
1979-07-21 12:47:50.800 ,0,0,0.,12.0,0.,12.0,0.,12.0,0.,12.0
1979-07-21 12:48:02.800 ,0,1,0.,12.0,0.,12.0,0.,12.0,0.,12.0
1979-07-21 12:48:14.800 ,0,1,0.,12.0,0.,12.0,0.,12.0,0.,12.0
1979-07-21 12:48:26.800 ,0,0,0.,12.0,0.,12.0,0.,12.0,0.,12.0
1979-07-21 12:48:38.800 ,0,0,0.,12.0,0.,12.0,0.,12.0,0.,12.0
1979-07-21 12:48:50.800 ,1,1,0.,12.0,0.,12.0,0.,12.0,0.,12.0
1979-07-21 12:49:02.800 ,1,1,0.,12.0,0.,12.0,0.,12.0,0.,12.0
1979-07-21 12:49:14.800 ,1,0,0.,12.0,0.,12.0,0.,12.0,0.,12.0
1979-07-21 12:49:26.800 ,1,0,0.,12.0,0.,12.0,0.,12.0,0.,12.0
1979-07-21 12:49:38.800 ,2,1,0.,12.0,0.,12.0,0.,12.0,0.,12.0
1979-07-21 12:49:50.800 ,2,1,0.,12.0,0.,12.0,0.,12.0,0.,12.0
1979-07-21 12:50:02.800 ,2,0,0.,12.0,0.,12.0,0.,12.0,0.,12.0
1979-07-21 12:50:14.800 ,2,0,0.,12.0,0.,12.0,0.,12.0,0.,12.0
1979-07-21 12:50:26.800 ,3,1,0.,12.0,0.,12.0,0.,12.0,0.,12.0
1979-07-21 12:50:38.800 ,3,1,0.,12.0,0.,12.0,0.,12.0,0.,12.0
1979-07-21 12:50:50.800 ,3,0,0.,12.0,0.,12.0,0.,12.0,0.,12.0
1979-07-21 12:51:02.800 ,3,0,0.,12.0,0.,12.0,0.,12.0,0.,12.0
1979-07-21 12:51:14.800 ,4,1,0.,12.0,0.,12.0,0.,12.0,0.,12.0
1979-07-21 12:51:26.800 ,4,1,0.,12.0,0.,12.0,0.,12.0,0.,12.0
1979-07-21 12:51:38.800 ,4,0,1.,12.0,0.,12.0,0.,12.0,0.,12.0
1979-07-21 12:51:50.800 ,4,0,0.,12.0,0.,12.0,0.,12.0,0.,12.0
1979-07-21 12:52:02.800 ,5,1,0.,12.0,0.,12.0,0.,12.0,0.,12.0
1979-07-21 12:52:14.800 ,5,1,0.,12.0,0.,12.0,0.,12.0,0.,12.0
1979-07-21 12:52:26.800 ,5,0,0.,12.0,0.,12.0,0.,12.0,0.,12.0
1979-07-21 12:52:38.800 ,5,0,0.,12.0,0.,12.0,0.,12.0,0.,12.0
1979-07-21 12:52:50.800 ,6,1,0.,12.0,0.,12.0,0.,12.0,0.,12.0
1979-07-21 12:53:02.800 ,6,1,1.,12.0,0.,12.0,0.,12.0,0.,12.0
1979-07-21 12:53:14.800 ,6,0,0.,12.0,0.,12.0,0.,12.0,0.,12.0
1979-07-21 12:53:26.800 ,6,0,0.,12.0,0.,12.0,0.,12.0,0.,12.0
1979-07-21 12:53:38.800 ,7,1,0.,12.0,0.,12.0,0.,12.0,0.,12.0
1979-07-21 12:53:50.800 ,7,1,0.,12.0,0.,12.0,0.,12.0,0.,12.0
1979-07-21 12:54:02.800 ,7,0,0.,12.0,0.,12.0,0.,12.0,0.,12.0
1979-07-21 12:54:14.800 ,7,0,0.,12.0,0.,12.0,0.,12.0,0.,12.0
1979-07-21 12:54:26.800 ,7,1,0.,12.0,0.,12.0,0.,12.0,0.,12.0
1979-07-21 12:54:38.800 ,7,1,0.,12.0,0.,12.0,0.,12.0,0.,12.0
1979-07-21 12:54:50.800 ,7,0,0.,12.0,0.,12.0,0.,12.0,0.,12.0
1979-07-21 12:55:02.800 ,7,0,0.,12.0,0.,12.0,0.,12.0,0.,12.0
1979-07-21 12:55:14.800 ,6,1,0.,12.0,0.,12.0,0.,12.0,0.,12.0
1979-07-21 12:55:26.800 ,6,1,0.,12.0,0.,12.0,0.,12.0,0.,12.0
1979-07-21 12:55:38.800 ,6,0,0.,12.0,0.,12.0,0.,12.0,0.,12.0
1979-07-21 12:55:50.800 ,6,0,0.,12.0,0.,12.0,0.,12.0,0.,12.0
1979-07-21 12:56:02.800 ,5,1,0.,12.0,0.,12.0,0.,12.0,0.,12.0
1979-07-21 12:56:14.800 ,5,1,0.,12.0,0.,12.0,0.,12.0,0.,12.0
1979-07-21 12:56:26.800 ,5,0,1.,12.0,0.,12.0,0.,12.0,0.,12.0
1979-07-21 12:56:38.800 ,5,0,0.,12.0,0.,12.0,0.,12.0,0.,12.0
1979-07-21 12:56:50.800 ,4,1,0.,12.0,0.,12.0,0.,12.0,0.,12.0
1979-07-21 12:57:02.800 ,4,1,0.,12.0,0.,12.0,0.,12.0,0.,12.0
1979-07-21 12:57:14.800 ,4,0,0.,12.0,0.,12.0,0.,12.0,0.,12.0
1979-07-21 12:57:26.800 ,4,0,0.,12.0,0.,12.0,0.,12.0,0.,12.0
1979-07-21 12:57:38.800 ,3,1,0.,12.0,0.,12.0,0.,12.0,0.,12.0
1979-07-21 12:57:50.800 ,3,1,0.,12.0,0.,12.0,0.,12.0,0.,12.0
1979-07-21 12:58:02.800 ,3,0,0.,12.0,0.,12.0,0.,12.0,0.,12.0
1979-07-21 12:58:14.800 ,3,0,0.,12.0,0.,12.0,0.,12.0,0.,12.0
1979-07-21 12:58:26.800 ,2,1,0.,12.0,0.,12.0,0.,12.0,0.,12.0
1979-07-21 12:58:38.800 ,2,1,0.,12.0,0.,12.0,0.,12.0,0.,12.0
1979-07-21 12:58:50.800 ,2,0,0.,12.0,0.,12.0,0.,12.0,0.,12.0
1979-07-21 12:59:02.800 ,2,0,0.,12.0,0.,12.0,0.,12.0,0.,12.0
1979-07-21 12:59:14.800 ,1,1,0.,12.0,0.,12.0,0.,12.0,0.,12.0
1979-07-21 12:59:26.800 ,1,1,0.,12.0,0.,12.0,0.,12.0,0.,12.0
1979-07-21 12:59:38.800 ,1,0,0.,12.0,0.,12.0,0.,12.0,0.,12.0
1979-07-21 12:59:50.800 ,1,0,0.,12.0,0.,12.0,0.,12.0,0.,12.0
1979-07-21 13:00:02.800 ,0,1,0.,12.0,0.,12.0,0.,12.0,0.,12.0
1979-07-21 13:00:14.800 ,0,1,0.,12.0,0.,12.0,0.,12.0,0.,12.0
1979-07-21 13:00:26.800 ,0,0,0.,12.0,0.,12.0,0.,12.0,0.,12.0
1979-07-21 13:00:38.800 ,0,0,0.,12.0,0.,12.0,0.,12.0,0.,12.0
1979-07-21 13:00:50.800 ,0,1,0.,12.0,0.,12.0,0.,12.0,0.,12.0
1979-07-21 13:01:02.800 ,0,1,0.,12.0,0.,12.0,0.,12.0,0.,12.0
1979-07-21 13:01:14.800 ,0,0,0.,12.0,0.,12.0,0.,12.0,0.,12.0
1979-07-21 13:01:26.800 ,0,0,0.,12.0,0.,12.0,0.,12.0,0.,12.0
1979-07-21 13:01:38.800 ,1,1,0.,12.0,0.,12.0,0.,12.0,0.,12.0
1979-07-21 13:01:50.800 ,1,1,0.,12.0,0.,12.0,0.,12.0,0.,12.0
1979-07-21 13:02:02.800 ,1,0,0.,12.0,0.,12.0,0.,12.0,0.,12.0
1979-07-21 13:02:14.800 ,1,0,0.,12.0,0.,12.0,0.,12.0,0.,12.0
1979-07-21 13:02:26.800 ,2,1,0.,12.0,0.,12.0,0.,12.0,0.,12.0
1979-07-21 13:02:38.800 ,2,1,0.,12.0,0.,12.0,0.,12.0,0.,12.0
1979-07-21 13:02:50.800 ,2,0,0.,12.0,0.,12.0,0.,12.0,0.,12.0
1979-07-21 13:03:02.800 ,2,0,0.,12.0,0.,12.0,0.,12.0,0.,12.0
1979-07-21 13:03:14.800 ,3,1,0.,12.0,0.,12.0,0.,12.0,0.,12.0
1979-07-21 13:03:26.800 ,3,1,0.,12.0,0.,12.0,0.,12.0,0.,12.0
1979-07-21 13:03:38.800 ,3,0,0.,12.0,0.,12.0,0.,12.0,0.,12.0
1979-07-21 13:03:50.800 ,3,0,0.,12.0,0.,12.0,0.,12.0,0.,12.0
1979-07-21 13:04:02.800 ,4,1,0.,12.0,0.,12.0,0.,12.0,0.,12.0
1979-07-21 13:04:14.800 ,4,1,0.,12.0,0.,12.0,0.,12.0,0.,12.0
1979-07-21 13:04:26.800 ,4,0,0.,12.0,0.,12.0,0.,12.0,0.,12.0
1979-07-21 13:04:38.800 ,4,0,0.,12.0,0.,12.0,0.,12.0,0.,12.0
1979-07-21 13:04:50.800 ,5,1,0.,12.0,0.,12.0,0.,12.0,0.,12.0
1979-07-21 13:05:02.800 ,5,1,0.,12.0,0.,12.0,0.,12.0,0.,12.0
1979-07-21 13:05:14.800 ,5,0,0.,12.0,0.,12.0,0.,12.0,0.,12.0
1979-07-21 13:05:26.800 ,5,0,0.,12.0,0.,12.0,0.,12.0,0.,12.0
1979-07-21 13:05:38.800 ,6,1,0.,12.0,0.,12.0,0.,12.0,0.,12.0
1979-07-21 13:05:50.800 ,6,1,0.,12.0,0.,12.0,0.,12.0,0.,12.0
1979-07-21 13:06:02.800 ,6,0,0.,12.0,0.,12.0,0.,12.0,0.,12.0
1979-07-21 13:06:14.800 ,6,0,0.,12.0,0.,12.0,0.,12.0,0.,12.0
1979-07-21 13:06:26.800 ,7,0,0.,12.0,0.,12.0,0.,12.0,0.,12.0
1979-07-21 13:06:38.800 ,7,0,0.,12.0,0.,12.0,0.,12.0,0.,12.0
1979-07-21 13:06:50.800 ,7,0,0.,12.0,0.,12.0,0.,12.0,0.,12.0
1979-07-21 13:07:02.800 ,7,0,0.,12.0,0.,12.0,0.,12.0,0.,12.0
1979-07-21 13:07:14.800 ,4,1,0.,12.0,0.,12.0,0.,12.0,0.,12.0
1979-07-21 13:07:26.800 ,4,1,0.,12.0,0.,12.0,0.,12.0,0.,12.0
1979-07-21 13:07:38.800 ,0,1,0.,12.0,0.,12.0,0.,12.0,0.,12.0
1979-07-21 13:07:50.800 ,0,1,0.,12.0,0.,12.0,0.,12.0,0.,12.0
1979-07-21 13:08:02.800 ,3,1,0.,12.0,0.,12.0,0.,12.0,0.,12.0
1979-07-21 13:08:14.800 ,3,1,0.,12.0,0.,12.0,0.,12.0,0.,12.0
1979-07-21 13:08:26.800 ,7,1,0.,12.0,0.,12.0,0.,12.0,0.,12.0
1979-07-21 13:08:38.800 ,7,1,0.,12.0,0.,12.0,0.,12.0,0.,12.0
1979-07-21 13:08:50.800 ,4,1,0.,12.0,0.,12.0,0.,12.0,0.,12.0
1979-07-21 13:09:02.800 ,4,1,0.,12.0,0.,12.0,0.,12.0,0.,12.0
1979-07-21 13:09:14.800 ,0,1,0.,12.0,0.,12.0,0.,12.0,0.,12.0
1979-07-21 13:09:26.800 ,0,1,0.,12.0,0.,12.0,0.,12.0,0.,12.0
1979-07-21 13:09:38.800 ,3,1,0.,12.0,0.,12.0,0.,12.0,0.,12.0
1979-07-21 13:09:50.800 ,3,1,0.,12.0,0.,12.0,0.,12.0,0.,12.0
1979-07-21 13:10:02.800 ,7,1,0.,12.0,0.,12.0,0.,12.0,0.,12.0
1979-07-21 13:10:14.800 ,7,1,0.,12.0,0.,12.0,0.,12.0,0.,12.0
1979-07-21 13:10:26.800 ,4,1,0.,12.0,0.,12.0,0.,12.0,0.,12.0
1979-07-21 13:10:38.800 ,4,1,0.,12.0,0.,12.0,0.,12.0,0.,12.0
1979-07-21 13:10:50.800 ,0,1,0.,12.0,0.,12.0,0.,12.0,0.,12.0
1979-07-21 13:11:02.800 ,0,1,0.,12.0,0.,12.0,0.,12.0,0.,12.0
1979-07-21 13:11:14.800 ,3,1,0.,12.0,0.,12.0,0.,12.0,0.,12.0
1979-07-21 13:11:26.800 ,3,1,0.,12.0,0.,12.0,0.,12.0,0.,12.0
1979-07-21 13:11:38.800 ,7,1,0.,12.0,0.,12.0,0.,12.0,0.,12.0
1979-07-21 13:11:50.800 ,7,1,0.,12.0,0.,12.0,0.,12.0,0.,12.0
1979-07-21 13:12:02.800 ,4,1,0.,12.0,0.,12.0,0.,12.0,0.,12.0
1979-07-21 13:12:14.800 ,4,1,0.,12.0,0.,12.0,0.,12.0,0.,12.0
1979-07-21 13:12:26.800 ,0,1,0.,12.0,0.,12.0,0.,12.0,0.,12.0
1979-07-21 13:12:38.800 ,0,1,0.,12.0,0.,12.0,0.,12.0,0.,12.0
1979-07-21 13:12:50.800 ,3,1,0.,12.0,0.,12.0,0.,12.0,0.,12.0
1979-07-21 13:13:02.800 ,3,1,0.,12.0,0.,12.0,0.,12.0,0.,12.0
1979-07-21 13:13:14.800 ,7,1,0.,12.0,0.,12.0,0.,12.0,0.,12.0
1979-07-21 13:13:26.800 ,7,1,0.,12.0,0.,12.0,0.,12.0,0.,12.0
1979-07-21 13:13:38.800 ,4,1,0.,12.0,0.,12.0,0.,12.0,0.,12.0
1979-07-21 13:13:50.800 ,4,1,0.,12.0,0.,12.0,0.,12.0,0.,12.0
1979-07-21 13:14:02.800 ,0,1,0.,12.0,0.,12.0,0.,12.0,0.,12.0
1979-07-21 13:14:14.800 ,0,1,0.,12.0,0.,12.0,0.,12.0,0.,12.0
1979-07-21 13:14:26.800 ,3,1,0.,12.0,0.,12.0,0.,12.0,0.,12.0
1979-07-21 13:14:38.800 ,3,1,0.,12.0,0.,12.0,0.,12.0,0.,12.0
1979-07-21 13:14:50.800 ,7,1,0.,12.0,0.,12.0,0.,12.0,0.,12.0
1979-07-21 13:15:02.800 ,7,1,0.,12.0,0.,12.0,0.,12.0,0.,12.0
1979-07-21 13:15:14.800 ,4,1,0.,12.0,0.,12.0,0.,12.0,0.,12.0
1979-07-21 13:15:26.800 ,4,1,0.,12.0,0.,12.0,0.,12.0,0.,12.0
1979-07-21 13:15:38.800 ,0,1,0.,12.0,0.,12.0,0.,12.0,0.,12.0
1979-07-21 13:15:50.800 ,0,1,0.,12.0,0.,12.0,0.,12.0,0.,12.0
1979-07-21 13:16:02.800 ,3,1,0.,12.0,0.,12.0,0.,12.0,0.,12.0
1979-07-21 13:16:14.800 ,3,1,0.,12.0,0.,12.0,0.,12.0,0.,12.0
1979-07-21 13:16:26.800 ,7,1,0.,12.0,0.,12.0,0.,12.0,0.,12.0
1979-07-21 13:16:38.800 ,7,1,0.,12.0,0.,12.0,0.,12.0,0.,12.0
1979-07-21 13:16:50.800 ,4,1,0.,12.0,0.,12.0,0.,12.0,0.,12.0
1979-07-21 13:17:02.800 ,4,1,0.,12.0,0.,12.0,0.,12.0,0.,12.0
1979-07-21 13:17:14.800 ,0,1,0.,12.0,0.,12.0,0.,12.0,0.,12.0
1979-07-21 13:17:26.800 ,0,1,0.,12.0,0.,12.0,0.,12.0,0.,12.0